DW7126 Lourinha PT current weather conditions

sailwx.info

Wind from 242 at 10 knots gusting 14

Air temperature 23.9° C
Dewpoint 18.3° C

Last reported at 2017-May-24 13:00 UTC.
Time now 2017-May-24 13:27 UTC

Location: N 39°14' W 009°18'.
View on Google Maps.

See reports from other nearby stations

  
Tides and Currents Weather Stations Pressure Air Temp Water Temp Dewpoint Dewpoint Depression Visibility Wind Speed Wind Dir Waves Ship Positions
date/time (UTC)wind fromknots sea level pressurealtimeterstation pressurevisibilityair tempwater tempwave heightnotes
2017-May-24 13:05 360 12 gusting 16 23.9
2017-May-24 13:00 242 10 gusting 14 23.9
2017-May-24 12:55 360 11 gusting 14 23.3
2017-May-24 12:50 245 9 gusting 15 22.8
2017-May-24 12:45 360 10 gusting 16 22.2
2017-May-24 12:40 217 12 gusting 16 21.1
2017-May-24 12:35 244 11 gusting 16 20.6
2017-May-24 12:30 360 12 gusting 15 20.6
2017-May-24 12:25 234 12 gusting 15 21.7
2017-May-24 12:20 227 12 gusting 18 21.7
2017-May-24 12:15 220 12 gusting 19 21.7
2017-May-24 12:10 236 13 gusting 18 22.2
2017-May-24 12:05 229 13 gusting 19 22.8
2017-May-24 12:00 219 13 gusting 19 23.3
2017-May-24 11:55 240 14 gusting 16 23.9
2017-May-24 11:50 360 10 gusting 17 24.4
2017-May-24 11:45 360 12 gusting 17 23.9
2017-May-24 11:40 360 12 gusting 16 23.9
2017-May-24 11:35 212 11 gusting 15 23.9
2017-May-24 11:30 223 10 gusting 15 23.9
2017-May-24 11:25 218 11 gusting 16 23.3
2017-May-24 11:20 360 10 gusting 15 24.4
2017-May-24 11:15 236 10 gusting 16 24.4
2017-May-24 11:10 242 11 gusting 16 24.4
2017-May-24 11:05 219 12 gusting 17 24.4
2017-May-24 11:00 360 9 gusting 17 25.0
2017-May-24 10:55 225 11 gusting 13 25.0
2017-May-24 10:50 360 8 gusting 13 25.6
2017-May-24 10:45 360 10 gusting 13 25.6
2017-May-24 10:40 260 9 gusting 13 25.6
2017-May-24 10:35 234 6 gusting 10 25.6
2017-May-24 10:30 256 6 gusting 12 24.4
2017-May-24 10:25 275 7 gusting 12 24.4
2017-May-24 10:20 229 4 gusting 10 26.1
2017-May-24 10:15 190 5 gusting 14 25.6
2017-May-24 10:10 204 7 gusting 13 25.6
2017-May-24 10:05 227 4 gusting 10 25.6
2017-May-24 10:00 201 6 gusting 10 25.6
2017-May-24 09:55 202 2 gusting 9 25.0
2017-May-24 09:50 137 4 gusting 10 25.0
2017-May-24 09:45 157 4 gusting 8 25.0
2017-May-24 09:40 173 2 gusting 7 24.4
2017-May-24 09:35 127 2 gusting 7 24.4
2017-May-24 09:30 171 3 gusting 9 23.9
2017-May-24 09:25 127 5 gusting 9 24.4
2017-May-24 09:20 151 5 gusting 9 23.9
2017-May-24 09:15 148 6 gusting 9 23.9
2017-May-24 09:10 112 4 gusting 9 23.9
2017-May-24 09:05 158 4 gusting 7 23.9
2017-May-24 09:00 123 3 gusting 7 23.3
2017-May-24 08:55 120 3 gusting 11 23.3
2017-May-24 08:50 097 1 gusting 8 23.3
2017-May-24 08:45 086 4 gusting 10 22.8
2017-May-24 08:40 056 6 gusting 10 22.8
2017-May-24 08:35 087 5 gusting 8 22.2
2017-May-24 08:30 111 5 gusting 10 22.2
2017-May-24 08:25 122 5 gusting 10 21.7
2017-May-24 08:20 093 6 gusting 9 21.7
2017-May-24 08:15 104 3 gusting 11 21.1
2017-May-24 08:10 094 6 gusting 13 21.1
2017-May-24 08:05 108 7 gusting 13 21.1
2017-May-24 08:00 098 7 gusting 13 21.1
2017-May-24 07:55 129 4 gusting 9 20.6
2017-May-24 07:45 121 6 gusting 11 20.0
2017-May-24 07:40 085 5 gusting 10 20.0
2017-May-24 07:35 117 7 gusting 12 20.0
2017-May-24 07:30 097 7 gusting 12 20.0
2017-May-24 07:25 110 5 gusting 9 19.4
2017-May-24 07:20 103 6 gusting 11 19.4
2017-May-24 07:15 098 7 gusting 11 18.9
2017-May-24 07:10 100 7 gusting 11 18.9
2017-May-24 07:05 109 6 gusting 11 18.3
2017-May-24 07:00 107 6 gusting 11 18.3
2017-May-24 06:55 094 5 gusting 9 18.3
2017-May-24 06:50 098 5 gusting 9 18.3
2017-May-24 06:45 094 6 gusting 8 18.3
2017-May-24 06:40 086 6 gusting 8 17.8
2017-May-24 06:35 105 3 gusting 7 17.8
2017-May-24 06:30 116 2 gusting 7 17.2
2017-May-24 06:25 097 16.7
2017-May-24 06:20 119 1 gusting 6 16.7
2017-May-24 06:10 056 16.1
2017-May-24 06:05 056 15.6
2017-May-24 06:00 056 15.6
2017-May-24 05:55 054 15.6
2017-May-24 05:50 054 15.6
2017-May-24 05:45 055 15.0
2017-May-24 05:40 055 15.0
2017-May-24 05:35 055 15.0
2017-May-24 05:30 055 15.0
2017-May-24 05:25 055 15.0
2017-May-24 05:20 055 0 gusting 0 15.0
2017-May-24 05:15 055 15.0
2017-May-24 05:10 055 15.6
2017-May-24 05:05 055 0 gusting 5 15.6
2017-May-24 05:01 055 1 gusting 6 15.6
2017-May-24 04:50 074 1 gusting 4 15.6
2017-May-24 04:45 195 15.6
2017-May-24 04:40 195 0 gusting 5 16.1
2017-May-24 04:35 195 2 gusting 5 16.1
2017-May-24 04:30 129 2 gusting 4 16.1
2017-May-24 04:25 051 0 gusting 2 15.6
2017-May-24 04:20 051 15.0
2017-May-24 04:15 051 0 gusting 3 15.0
2017-May-24 04:10 050 2 gusting 3 14.4
2017-May-24 04:05 044 1 gusting 3 14.4
2017-May-24 04:00 044 15.0
2017-May-24 03:55 044 0 gusting 4 15.0
2017-May-24 03:50 044 2 gusting 5 15.0
2017-May-24 03:45 044 4 gusting 5 15.0
2017-May-24 03:40 028 2 gusting 3 15.6
2017-May-24 03:35 028 1 gusting 3 16.1
2017-May-24 03:25 028 16.1
2017-May-24 03:20 028 15.6
2017-May-24 03:15 028 16.1
2017-May-24 03:10 028 16.1
2017-May-24 03:05 028 16.1
2017-May-24 03:00 028 16.1
2017-May-24 02:55 028 1 gusting 2 16.1
2017-May-24 02:50 028 16.1
2017-May-24 02:45 028 16.1
2017-May-24 02:40 028 16.7
2017-May-24 02:35 028 16.7
2017-May-24 02:30 028 16.1
2017-May-24 02:25 028 16.7
2017-May-24 02:20 028 17.2
2017-May-24 02:15 028 17.2
2017-May-24 02:10 028 17.2
2017-May-24 02:05 028 17.2
2017-May-24 02:00 028 17.8
2017-May-24 01:55 028 17.2
2017-May-24 01:50 028 17.8
2017-May-24 01:45 028 17.2
2017-May-24 01:40 028 17.2
2017-May-24 01:35 028 17.2
2017-May-24 01:30 028 17.2
2017-May-24 01:25 028 17.2
2017-May-24 01:20 028 18.3
2017-May-24 01:15 028 18.3
2017-May-24 01:10 028 18.3
2017-May-24 01:05 028 18.3
2017-May-24 01:00 028 18.3
2017-May-24 00:55 028 18.3
2017-May-24 00:50 028 18.3
2017-May-24 00:45 028 18.3
2017-May-24 00:40 028 18.3
2017-May-24 00:35 028 18.3
2017-May-24 00:30 028 18.3
2017-May-24 00:25 029 18.3
2017-May-24 00:20 029 18.3
2017-May-24 00:15 030 18.3
2017-May-24 00:10 029 18.3
2017-May-24 00:05 029 18.3
2017-May-24 00:00 030 18.3
2017-May-23 23:55 029 18.3
2017-May-23 23:50 029 18.3
2017-May-23 23:45 029 18.3
2017-May-23 23:40 029 19.4
2017-May-23 23:35 029 19.4
2017-May-23 23:30 029 19.4
2017-May-23 23:25 029 19.4
2017-May-23 23:20 029 20.0
2017-May-23 23:15 029 20.0
2017-May-23 23:10 029 20.0
2017-May-23 23:05 029 20.0
2017-May-23 22:55 029 20.0
2017-May-23 22:50 029 20.0
2017-May-23 22:45 029 20.0
2017-May-23 22:40 029 20.0
2017-May-23 22:35 030 0 gusting 2 20.6
2017-May-23 22:25 030 20.6
2017-May-23 22:20 030 20.6
2017-May-23 22:15 032 20.6
2017-May-23 22:10 031 20.6
2017-May-23 22:05 031 20.6
2017-May-23 22:00 031 20.6
2017-May-23 21:55 030 21.1
2017-May-23 21:50 031 21.1
2017-May-23 21:40 332 21.7
2017-May-23 21:35 332 21.7
2017-May-23 21:30 332 21.7
2017-May-23 21:25 332 21.7
2017-May-23 21:20 332 21.7
2017-May-23 21:15 331 21.7
2017-May-23 21:10 331 21.7
2017-May-23 21:05 331 21.7
2017-May-23 21:00 331 21.7
2017-May-23 20:55 331 22.2
2017-May-23 20:50 331 22.2
2017-May-23 20:45 331 22.2
2017-May-23 20:40 331 22.2
2017-May-23 20:35 332 0 gusting 1 22.8
2017-May-23 20:30 332 22.8
2017-May-23 20:25 332 22.8
2017-May-23 20:20 332 22.8
2017-May-23 20:15 332 22.8
2017-May-23 20:10 332 22.8
2017-May-23 20:05 332 23.3
2017-May-23 20:00 333 23.3
2017-May-23 19:55 333 23.9
2017-May-23 19:50 332 0 gusting 2 23.9
2017-May-23 19:45 333 0 gusting 2 23.9
2017-May-23 19:40 332 23.9
2017-May-23 19:35 333 24.4
2017-May-23 19:30 333 24.4
2017-May-23 19:25 333 24.4
2017-May-23 19:20 348 1 gusting 5 25.0
2017-May-23 19:15 355 0 gusting 6 25.0
2017-May-23 19:10 360 2 gusting 6 25.6
2017-May-23 19:05 360 4 gusting 6 25.6
2017-May-23 19:00 019 3 gusting 5 25.6
2017-May-23 18:55 347 0 gusting 6 25.6
2017-May-23 18:50 342 3 gusting 7 25.6
2017-May-23 18:45 336 5 gusting 8 26.1
2017-May-23 18:40 360 6 gusting 8 26.1
2017-May-23 18:35 055 2 gusting 5 26.7
2017-May-23 18:30 024 26.7
2017-May-23 18:25 024 3 gusting 11 26.7
2017-May-23 18:20 028 6 gusting 11 26.7
2017-May-23 18:15 360 2 gusting 7 26.7
2017-May-23 18:10 031 5 gusting 10 27.2
2017-May-23 18:05 028 6 gusting 10 27.2
2017-May-23 18:00 025 4 gusting 8 27.8
2017-May-23 17:55 018 3 gusting 9 27.2
2017-May-23 17:50 009 5 gusting 10 27.2
2017-May-23 17:45 019 6 gusting 12 27.2
2017-May-23 17:40 038 6 gusting 12 27.8
2017-May-23 17:35 033 6 gusting 10 27.8
2017-May-23 17:25 024 5 gusting 9 27.8
2017-May-23 17:20 025 3 gusting 11 27.8
2017-May-23 17:15 344 6 gusting 11 27.8
2017-May-23 17:10 005 6 gusting 9 27.8
2017-May-23 17:05 017 6 gusting 11 27.8
2017-May-23 16:55 040 4 gusting 11 28.3
2017-May-23 16:50 005 6 gusting 11 28.3
2017-May-23 16:45 027 6 gusting 11 28.3
2017-May-23 16:40 025 6 gusting 11 28.3
2017-May-23 16:35 005 7 gusting 11 28.3
2017-May-23 16:30 024 4 gusting 11 28.3
2017-May-23 16:25 331 6 gusting 9 28.3
2017-May-23 16:20 335 3 gusting 10 28.3
2017-May-23 16:15 005 5 gusting 10 28.3
2017-May-23 16:10 010 6 gusting 11 28.3
2017-May-23 16:05 346 6 gusting 11 28.3
2017-May-23 16:00 355 4 gusting 9 28.3
2017-May-23 15:55 338 6 gusting 10 28.3
2017-May-23 15:50 347 4 gusting 10 28.3
2017-May-23 15:45 021 5 gusting 10 28.3
2017-May-23 15:40 344 3 gusting 10 28.3
2017-May-23 15:35 019 5 gusting 10 28.3
2017-May-23 15:30 005 6 gusting 9 28.3
2017-May-23 15:25 012 6 gusting 9 28.3
2017-May-23 15:20 026 5 gusting 8 28.3
2017-May-23 15:15 321 5 gusting 8 28.3
2017-May-23 15:10 360 5 gusting 8 28.9
2017-May-23 15:05 327 5 gusting 8 28.9
2017-May-23 15:00 030 5 gusting 9 28.9
2017-May-23 14:55 336 4 gusting 9 28.3
2017-May-23 14:50 319 5 gusting 10 27.8
2017-May-23 14:45 338 7 gusting 11 27.8
2017-May-23 14:40 315 7 gusting 11 27.2
2017-May-23 14:35 336 6 gusting 8 27.2
2017-May-23 14:30 331 6 gusting 8 26.7
2017-May-23 14:25 360 6 gusting 8 26.7
2017-May-23 14:20 337 6 gusting 8 27.2
2017-May-23 14:15 344 6 gusting 8 27.2
2017-May-23 14:10 293 3 gusting 8 27.2
2017-May-23 14:00 323 6 gusting 9 27.8
2017-May-23 13:55 325 5 gusting 8 28.3
2017-May-23 13:50 336 5 gusting 8 27.8
2017-May-23 13:45 355 6 gusting 9 27.8
2017-May-23 13:40 308 4 gusting 9 27.8
2017-May-23 13:35 315 5 gusting 8 27.8
2017-May-23 13:30 323 6 gusting 8 28.3
2017-May-23 13:25 322 5 gusting 8 27.8
2017-May-23 13:20 342 6 gusting 8 27.8
2017-May-23 13:15 320 5 gusting 9 27.2
2017-May-23 13:10 288 4 gusting 9 27.2
2017-May-23 13:05 322 5 gusting 8 27.2
2017-May-23 13:00 288 4 gusting 8 27.2
2017-May-23 12:55 288 5 gusting 8 27.2
2017-May-23 12:50 279 6 gusting 8 27.2
2017-May-23 12:45 279 4 gusting 7 27.2
2017-May-23 12:40 274 6 gusting 7 26.7
2017-May-23 12:35 300 4 gusting 7 26.7
2017-May-23 12:30 315 2 gusting 6 26.7
2017-May-23 12:25 280 4 gusting 6 26.7
2017-May-23 12:20 296 3 gusting 6 26.7
2017-May-23 12:15 331 4 gusting 6 26.7
2017-May-23 12:10 316 3 gusting 6 26.7
2017-May-23 12:05 290 2 gusting 6 26.7
2017-May-23 12:00 329 5 gusting 6 26.7
2017-May-23 11:55 286 3 gusting 7 26.7
2017-May-23 11:50 292 3 gusting 6 27.2
2017-May-23 11:45 312 4 gusting 6 27.2
2017-May-23 11:40 329 4 gusting 6 27.2
2017-May-23 11:35 301 4 gusting 6 27.2
2017-May-23 11:25 022 0 gusting 6 28.9
2017-May-23 11:20 024 2 gusting 6 28.9
2017-May-23 11:15 048 3 gusting 6 28.3
2017-May-23 11:10 076 27.8
2017-May-23 11:05 083 6 gusting 8 27.8
2017-May-23 11:00 038 0 gusting 6 27.8
2017-May-23 10:55 065 1 gusting 6 27.2
2017-May-23 10:50 083 2 gusting 6 27.2
2017-May-23 10:45 042 2 gusting 11 27.2
2017-May-23 10:40 054 6 gusting 11 26.7
2017-May-23 10:35 098 2 gusting 6 26.1
2017-May-23 10:30 067 3 gusting 9 26.1
2017-May-23 10:25 055 6 gusting 9 26.1
2017-May-23 10:20 070 4 gusting 7 26.1
2017-May-23 10:15 069 4 gusting 6 25.6
2017-May-23 10:10 034 1 gusting 5 25.6
2017-May-23 10:05 025 2 gusting 6 25.0
2017-May-23 09:55 059 3 gusting 7 24.4
2017-May-23 09:50 019 1 gusting 7 23.9
2017-May-23 09:45 042 4 gusting 7 23.9
2017-May-23 09:40 019 1 gusting 5 23.3
2017-May-23 09:35 040 0 gusting 5 23.3
2017-May-23 09:30 027 0 gusting 6 22.8
2017-May-23 09:25 039 0 gusting 2 22.8
2017-May-23 09:20 043 0 gusting 2 22.8
2017-May-23 09:15 043 22.8
2017-May-23 09:10 043 0 gusting 2 22.2
2017-May-23 09:05 042 21.7
2017-May-23 09:00 042 0 gusting 3 21.7
2017-May-23 08:55 042 0 gusting 3 21.7
2017-May-23 08:50 042 0 gusting 3 21.1
2017-May-23 08:45 042 0 gusting 3 21.1
2017-May-23 08:40 042 21.1
2017-May-23 08:35 042 0 gusting 4 20.6
2017-May-23 08:30 042 2 gusting 4 20.0
2017-May-23 08:25 065 20.0
2017-May-23 08:20 071 1 gusting 4 20.0
2017-May-23 08:15 065 0 gusting 4 19.4
2017-May-23 08:10 064 0 gusting 4 19.4
2017-May-23 08:05 059 1 gusting 4 19.4
2017-May-23 08:00 058 18.9
2017-May-23 07:55 059 0 gusting 3 18.9
2017-May-23 07:50 057 18.3
2017-May-23 07:45 058 0 gusting 5 18.3
2017-May-23 07:40 056 2 gusting 5 18.3
2017-May-23 07:30 046 1 gusting 5 17.8
2017-May-23 07:25 045 3 gusting 5 17.8
2017-May-23 07:20 055 1 gusting 5 17.8
2017-May-23 07:15 057 3 gusting 5 17.2
2017-May-23 07:10 055 1 gusting 4 17.2
2017-May-23 07:05 052 0 gusting 4 17.2
2017-May-23 07:00 060 2 gusting 5 16.7
2017-May-23 06:55 065 3 gusting 5 16.7
2017-May-23 06:50 050 1 gusting 4 16.7
2017-May-23 06:45 051 2 gusting 5 16.7
2017-May-23 06:40 032 3 gusting 6 16.7
2017-May-23 06:35 028 3 gusting 6 16.7
2017-May-23 06:30 030 3 gusting 6 16.7
2017-May-23 06:25 034 2 gusting 6 16.7
2017-May-23 06:20 055 0 gusting 4 16.7
2017-May-23 06:15 040 0 gusting 4 16.7
2017-May-23 06:10 041 0 gusting 6 16.7
2017-May-23 06:05 036 2 gusting 6 16.1
2017-May-23 06:00 039 2 gusting 6 16.1
2017-May-23 05:55 034 2 gusting 6 16.1
2017-May-23 05:50 013 3 gusting 6 16.1
2017-May-23 05:45 038 2 gusting 4 16.1
2017-May-23 05:40 038 1 gusting 4 16.1
2017-May-23 05:35 053 1 gusting 4 16.1
2017-May-23 05:30 052 3 gusting 4 16.1
2017-May-23 05:25 027 2 gusting 8 16.1
2017-May-23 05:20 024 4 gusting 8 16.1
2017-May-23 05:15 024 5 gusting 7 16.1
2017-May-23 05:10 026 4 gusting 7 16.1
2017-May-23 05:05 024 5 gusting 8 16.1
2017-May-23 05:00 017 6 gusting 8 16.1
2017-May-23 04:55 026 5 gusting 8 16.1
2017-May-23 04:50 030 6 gusting 8 16.1
2017-May-23 04:45 024 4 gusting 8 16.1
2017-May-23 04:40 036 5 gusting 10 16.1
2017-May-23 04:30 032 5 gusting 9 16.1
2017-May-23 04:25 024 5 gusting 8 16.1
2017-May-23 04:20 048 6 gusting 13 16.1
2017-May-23 04:15 030 9 gusting 13 16.1
2017-May-23 04:10 027 8 gusting 12 16.1
2017-May-23 04:05 057 6 gusting 8 16.1
2017-May-23 04:00 030 6 gusting 9 16.1
2017-May-23 03:55 028 6 gusting 8 16.1
2017-May-23 03:50 026 5 gusting 8 16.1
2017-May-23 03:45 030 5 gusting 7 16.1
2017-May-23 03:40 030 5 gusting 11 16.1
2017-May-23 03:35 030 6 gusting 12 16.1
2017-May-23 03:30 033 6 gusting 12 16.1
2017-May-23 03:25 039 5 gusting 8 16.1
2017-May-23 03:20 033 5 gusting 11 16.1
2017-May-23 03:15 040 6 gusting 11 16.1
2017-May-23 03:10 028 4 gusting 7 16.1
2017-May-23 03:05 030 4 gusting 7 16.1
2017-May-23 03:00 028 5 gusting 8 16.1
2017-May-23 02:55 034 3 gusting 8 16.1
2017-May-23 02:50 024 4 gusting 7 16.1
2017-May-23 02:40 043 2 gusting 7 16.1
2017-May-23 02:35 026 5 gusting 7 16.1
2017-May-23 02:25 028 3 gusting 6 16.1
2017-May-23 02:20 005 1 gusting 6 16.1
2017-May-23 02:15 028 3 gusting 6 16.1
2017-May-23 02:10 025 3 gusting 6 16.1
2017-May-23 02:05 016 2 gusting 5 16.1
2017-May-23 02:00 019 0 gusting 6 16.1
2017-May-23 00:45 034 5 gusting 7 16.1
2017-May-23 00:40 013 2 gusting 7 16.1
2017-May-23 00:35 034 1 gusting 6 16.1
2017-May-23 00:30 026 0 gusting 6 16.1
2017-May-23 00:26 037 4 gusting 6 16.1
2017-May-23 00:20 026 2 gusting 6 16.1
2017-May-23 00:15 017 3 gusting 6 16.1
2017-May-23 00:10 030 3 gusting 7 15.6
2017-May-23 00:05 028 4 gusting 7 15.6
2017-May-23 00:00 032 4 gusting 6 15.6
2017-May-22 23:55 024 4 gusting 7 15.6
2017-May-22 23:50 027 4 gusting 8 15.6
2017-May-22 23:45 005 5 gusting 8 15.6
2017-May-22 23:40 026 3 gusting 8 15.6
2017-May-22 23:35 026 6 gusting 8 15.6
2017-May-22 23:30 022 3 gusting 9 15.6
2017-May-22 23:25 021 5 gusting 9 15.6
2017-May-22 23:20 028 5 gusting 11 15.6
2017-May-22 23:15 030 6 gusting 11 15.6
2017-May-22 23:10 040 6 gusting 10 15.6
2017-May-22 23:05 023 6 gusting 11 15.6
2017-May-22 23:00 035 6 gusting 12 15.6
2017-May-22 22:55 029 8 gusting 12 15.6
2017-May-22 22:50 032 6 gusting 11 15.6
2017-May-22 22:45 033 5 gusting 13 15.6
2017-May-22 22:40 026 7 gusting 14 15.6
2017-May-22 22:35 042 5 gusting 8 15.6
2017-May-22 22:30 034 5 gusting 8 15.6
2017-May-22 22:25 029 6 gusting 9 15.6
2017-May-22 22:20 026 5 gusting 9 16.1
2017-May-22 22:15 035 6 gusting 9 16.1
2017-May-22 22:10 017 6 gusting 10 16.1
2017-May-22 22:05 027 6 gusting 10 16.1
2017-May-22 22:00 029 6 gusting 13 16.1
2017-May-22 21:55 020 9 gusting 13 16.1
2017-May-22 21:50 026 7 gusting 13 16.1
2017-May-22 21:45 017 8 gusting 13 16.1
2017-May-22 21:40 016 8 gusting 13 16.1
2017-May-22 21:35 032 7 gusting 13 16.1
2017-May-22 21:30 360 8 gusting 12 16.1
2017-May-22 21:25 028 6 gusting 13 16.1
2017-May-22 21:20 011 8 gusting 13 16.1
2017-May-22 21:15 021 6 gusting 11 16.1
2017-May-22 21:10 026 7 gusting 11 16.1
2017-May-22 21:05 022 6 gusting 10 16.1
2017-May-22 21:00 017 6 gusting 12 16.1
2017-May-22 20:55 009 6 gusting 12 16.1
2017-May-22 20:50 030 6 gusting 10 16.1
2017-May-22 20:45 005 4 gusting 7 16.1
2017-May-22 20:40 017 4 gusting 7 16.1
2017-May-22 20:35 005 3 gusting 9 16.1
2017-May-22 20:30 022 6 gusting 9 16.1
2017-May-22 20:25 005 4 gusting 9 16.1
2017-May-22 20:20 012 5 gusting 8 16.1
2017-May-22 20:15 024 4 gusting 10 16.1
2017-May-22 20:10 046 5 gusting 10 16.1
2017-May-22 20:05 031 6 gusting 13 16.1
2017-May-22 20:00 010 6 gusting 12 16.7
2017-May-22 19:55 005 5 gusting 13 16.7
2017-May-22 19:50 015 6 gusting 13 16.7
2017-May-22 19:45 019 9 gusting 13 16.7
2017-May-22 19:40 041 8 gusting 15 16.7
2017-May-22 19:35 355 10 gusting 14 16.7
2017-May-22 19:30 030 7 gusting 19 16.7
2017-May-22 19:25 018 13 gusting 19 16.7
2017-May-22 19:20 034 8 gusting 14 16.7
2017-May-22 19:15 041 10 gusting 14 17.2
2017-May-22 19:10 019 9 gusting 14 17.2
2017-May-22 19:05 017 10 gusting 15 17.2
2017-May-22 19:00 036 10 gusting 19 17.2
2017-May-22 18:55 018 13 gusting 19 17.2
2017-May-22 18:50 040 9 gusting 19 17.8
2017-May-22 18:45 024 12 gusting 19 17.8
2017-May-22 18:40 055 8 gusting 15 17.8
2017-May-22 18:35 022 10 gusting 15 17.8
2017-May-22 18:30 027 9 gusting 17 17.2
2017-May-22 18:25 360 11 gusting 17 17.2
2017-May-22 18:20 005 12 gusting 20 17.2
2017-May-22 18:15 355 12 gusting 20 17.8
2017-May-22 18:10 024 11 gusting 19 17.8
2017-May-22 18:05 026 13 gusting 19 17.8
2017-May-22 18:00 024 9 gusting 19 17.8
2017-May-22 17:55 046 11 gusting 18 17.8
2017-May-22 17:50 013 11 gusting 19 18.3
2017-May-22 17:45 005 11 gusting 17 18.9
2017-May-22 17:40 342 11 gusting 17 18.9
2017-May-22 17:35 355 12 gusting 17 18.3
2017-May-22 17:30 350 11 gusting 18 18.9
2017-May-22 17:25 043 13 gusting 18 18.9
2017-May-22 17:20 031 11 gusting 17 19.4
2017-May-22 17:15 360 7 gusting 14 19.4
2017-May-22 17:10 028 11 gusting 14 19.4
2017-May-22 17:05 028 9 gusting 19 20.0
2017-May-22 17:00 028 10 gusting 16 19.4
2017-May-22 16:55 032 10 gusting 18 19.4
2017-May-22 16:50 030 12 gusting 18 19.4
2017-May-22 16:40 033 8 gusting 18 19.4
2017-May-22 16:35 028 11 gusting 19 19.4
2017-May-22 16:25 041 11 gusting 17 19.4
2017-May-22 16:20 005 10 gusting 18 19.4
2017-May-22 16:10 012 13 gusting 18 19.4
2017-May-22 16:05 005 10 gusting 15 20.0
2017-May-22 16:00 027 9 gusting 17 20.6
2017-May-22 15:55 032 12 gusting 17 20.0
2017-May-22 15:50 026 11 gusting 16 20.0
2017-May-22 15:45 360 10 gusting 15 20.0
2017-May-22 15:40 028 9 gusting 15 20.6
2017-May-22 15:35 052 6 gusting 16 20.6
2017-May-22 15:30 028 10 gusting 16 20.0
2017-May-22 15:25 350 8 gusting 16 20.6
2017-May-22 15:20 015 12 gusting 17 21.1
2017-May-22 15:10 032 8 gusting 19 21.1
2017-May-22 15:05 005 7 gusting 13 21.1
2017-May-22 15:00 355 8 gusting 15 20.6
2017-May-22 14:50 027 9 gusting 16 20.6
2017-May-22 14:45 013 10 gusting 16 20.6
2017-May-22 14:40 019 8 gusting 15 20.6
2017-May-22 14:35 344 8 gusting 15 20.6
2017-May-22 14:30 013 7 gusting 13 20.6
2017-May-22 14:25 360 8 gusting 16 20.6
2017-May-22 14:20 038 7 gusting 16 20.6
2017-May-22 14:15 042 9 gusting 17 20.0
2017-May-22 14:10 343 8 gusting 18 20.6
2017-May-22 14:05 031 13 gusting 17 21.1
2017-May-22 14:00 011 8 gusting 17 20.6
2017-May-22 13:55 348 8 gusting 17 20.6
2017-May-22 13:50 031 11 gusting 15 20.0
2017-May-22 13:45 360 10 gusting 16 20.0
2017-May-22 13:40 022 10 gusting 16 20.0
2017-May-22 13:35 030 10 gusting 17 20.0
2017-May-22 13:30 005 8 gusting 17 20.6
2017-May-22 13:25 022 8 gusting 16 20.0
2017-May-22 13:20 019 7 gusting 14 20.6
2017-May-22 13:15 017 7 gusting 15 20.6
2017-May-22 13:10 015 7 gusting 16 20.0
2017-May-22 13:05 338 9 gusting 19 20.0
2017-May-22 13:00 017 11 gusting 19 20.0